Tacoma Narrows, WA
on Sunday, November 25, 2012

Sunday
Previous Day Next Day
Daily Summary
 ActualAverageRecord
Temperature
Mean Temperature °F °F  
Max Temperature 45°F 47°F 52°F (2004)
Min Temperature 37°F 39°F 28°F (2010)
Degree Days
Heating Degree Days 24    
Moisture
Dew Point 38°F   
Average Humidity 89    
Maximum Humidity 100    
Minimum Humidity 71    
Precipitation
Precipitation 0.00 in in in ()
Wind
Wind Speed 3 mph   
Max Wind Speed 14 mph   
Max Gust Speed 21 mph   
Visibility 5 miles   
Events Fog   
Averages and records for this station are not official NWS values.
Key: T is trace of precipitation, MM is missing value
Source: NWS Daily Summary
Seasonal Weather Averages
Time(PST)TemperatureDew PointHumidity Pressure Visibility Wind DirectionWind SpeedGust SpeedPrecipitationEvents Conditions
12:53 AM 42.1°F 39.9°F 92% 30.27 in 7.0 miles Calm Calm - N/A   Scattered Clouds
1:05 AM 42.8°F 39.2°F 87% 30.27 in 2.5 miles Calm Calm - N/A   Scattered Clouds
1:09 AM 41.0°F 39.2°F 93% 30.27 in 1.0 miles Calm Calm - N/A   Mist
1:16 AM 41.0°F 39.2°F 93% 30.27 in 0.8 miles Calm Calm - N/A   Mist
1:24 AM 41.0°F 39.2°F 93% 30.27 in 2.0 miles NE 3.5 mph - N/A   Mostly Cloudy
1:33 AM 41.0°F 39.2°F 93% 30.27 in 3.0 miles NE 3.5 mph - N/A   Overcast
1:42 AM 42.8°F 39.2°F 87% 30.27 in 2.0 miles NE 3.5 mph - N/A   Overcast
1:53 AM 42.1°F 39.9°F 92% 30.29 in 2.5 miles Calm Calm - N/A   Overcast
2:15 AM 39.2°F 37.4°F 93% 30.28 in 1.0 miles Calm Calm - N/A   Overcast
2:31 AM 39.2°F 39.2°F 100% 30.28 in 0.8 miles Calm Calm - N/A   Overcast
2:53 AM 41.0°F 39.0°F 93% 30.30 in 1.0 miles Calm Calm - N/A   Overcast
3:02 AM 41.0°F 39.2°F 93% 30.28 in 2.0 miles Calm Calm - N/A   Overcast
3:19 AM 41.0°F 39.2°F 93% 30.29 in 4.0 miles Calm Calm - N/A   Overcast
3:39 AM 42.8°F 39.2°F 87% 30.29 in 3.0 miles Calm Calm - N/A   Overcast
3:53 AM 42.1°F 39.9°F 92% 30.30 in 1.8 miles Calm Calm - N/A   Overcast
4:04 AM 41.0°F 39.2°F 93% 30.29 in 0.8 miles Calm Calm - N/A   Overcast
4:24 AM 39.2°F 37.4°F 93% 30.29 in 0.2 miles Calm Calm - N/A Fog Fog
4:49 AM 39.2°F 37.4°F 93% 30.29 in 0.5 miles Calm Calm - N/A Fog Fog
4:53 AM 39.0°F 37.0°F 93% 30.31 in 0.5 miles Calm Calm - N/A Fog Fog
5:21 AM 37.4°F 37.4°F 100% 30.30 in 0.2 miles Calm Calm - N/A Fog Fog
5:33 AM 39.2°F 37.4°F 93% 30.30 in 0.5 miles Calm Calm - N/A Fog Fog
5:53 AM 37.9°F 37.0°F 97% 30.31 in 0.2 miles Calm Calm - N/A Fog Fog
6:07 AM 39.2°F 37.4°F 93% 30.30 in 0.8 miles Calm Calm - N/A   Overcast
6:26 AM 37.4°F 35.6°F 93% 30.30 in 0.2 miles Calm Calm - N/A Fog Fog
6:33 AM 37.4°F 35.6°F 93% 30.30 in 0.2 miles Calm Calm - N/A Fog Fog
6:41 AM 37.4°F 35.6°F 93% 30.30 in 0.5 miles Calm Calm - N/A Fog Fog
6:53 AM 37.0°F 36.0°F 96% 30.31 in 0.2 miles Calm Calm - N/A Fog Fog
7:04 AM 37.4°F 35.6°F 93% 30.30 in 0.2 miles Calm Calm - N/A Fog Fog
7:53 AM 39.9°F 37.9°F 93% 30.32 in 0.2 miles Calm Calm - N/A Fog Fog
8:43 AM 39.2°F 39.2°F 100% 30.33 in 0.2 miles North 4.6 mph - N/A Fog Fog
8:53 AM 41.0°F 39.0°F 93% 30.34 in 1.2 miles NNE 3.5 mph - N/A   Overcast
8:56 AM 41.0°F 39.2°F 93% 30.32 in 4.0 miles NNE 4.6 mph - N/A   Overcast
9:49 AM 41.0°F 39.2°F 93% 30.34 in 10.0 miles NNE 5.8 mph - N/A   Mostly Cloudy
9:53 AM 41.0°F 39.0°F 93% 30.35 in 10.0 miles NNE 9.2 mph - N/A   Mostly Cloudy
10:32 AM 42.8°F 39.2°F 87% 30.34 in 10.0 miles North 9.2 mph - N/A   Scattered Clouds
10:53 AM 43.0°F 39.0°F 86% 30.35 in 10.0 miles North 9.2 mph - N/A   Scattered Clouds
11:53 AM 44.1°F 37.9°F 79% 30.33 in 10.0 miles North 9.2 mph - N/A   Scattered Clouds
12:53 PM 44.1°F 37.9°F 79% 30.32 in 10.0 miles North 9.2 mph - N/A   Scattered Clouds
1:25 PM 44.6°F 37.4°F 76% 30.30 in 10.0 miles North 8.1 mph - N/A   Mostly Cloudy
1:53 PM 45.0°F 37.0°F 74% 30.31 in 10.0 miles North 8.1 mph - N/A   Mostly Cloudy
2:22 PM 44.6°F 37.4°F 76% 30.30 in 10.0 miles North 10.4 mph - N/A   Scattered Clouds
2:53 PM 45.0°F 36.0°F 71% 30.30 in 10.0 miles North 11.5 mph - N/A   Scattered Clouds
3:53 PM 44.1°F 36.0°F 73% 30.30 in 10.0 miles North 8.1 mph - N/A   Scattered Clouds
4:53 PM 43.0°F 37.0°F 80% 30.29 in 10.0 miles NNE 5.8 mph - N/A   Clear
5:53 PM 43.0°F 37.0°F 80% 30.27 in 10.0 miles NNE 6.9 mph - N/A   Scattered Clouds
6:53 PM 42.1°F 37.0°F 82% 30.27 in 10.0 miles NNE 8.1 mph - N/A   Scattered Clouds
7:53 PM 42.1°F 37.0°F 82% 30.26 in 10.0 miles North 6.9 mph - N/A   Scattered Clouds
8:00 PM 42.8°F 37.4°F 81% 30.25 in 10.0 miles NNE 9.2 mph - N/A   Mostly Cloudy
8:28 PM 42.8°F 37.4°F 81% 30.24 in 10.0 miles NNE 6.9 mph - N/A   Scattered Clouds
8:53 PM 42.1°F 37.0°F 82% 30.24 in 10.0 miles NNE 9.2 mph 18.4 mph N/A   Partly Cloudy
9:53 PM 42.1°F 37.9°F 85% 30.23 in 10.0 miles North 10.4 mph - N/A   Partly Cloudy
10:53 PM 41.0°F 37.0°F 86% 30.21 in 10.0 miles NNE 13.8 mph 20.7 mph N/A   Clear
11:34 PM 41.0°F 37.4°F 87% 30.20 in 10.0 miles North 12.7 mph - N/A   Scattered Clouds
11:53 PM 41.0°F 37.0°F 86% 30.21 in 10.0 miles North 12.7 mph - N/A   Scattered Clouds
Moon Phase
Nov. 25 Nov. 28 Dec. 06 Dec. 13 Dec. 20
Sunrise:07:29 AM (PST) Moon Rise:02:51 PM (PST)11/25
Sunset:04:25 PM (PST) Moon Set:04:41 AM (PST)11/25

Copyright © 2014 The Weather Underground, Inc.